User: anonymous   Login
Location: Newark
(49.1000°N, 0.4667°W)
Time: 03:45:08
(UTC+00:00)
Language:

ISS - Orbit

View from above orbital plane
View from above orbital plane
View from above satellite
View from above satellite

Ground track
Ground track

The orbit data is extracted from the following two-line orbital elements,

1 25544U 98067A   21268.88750936 -.00004951  00000-0 -82210-4 0  9993
2 25544  51.6436 204.8214 0003973  24.5017  41.0090 15.48839908304207
Epoch (UTC): 25 September 2021 21:18:00
Eccentricity: 0.0003973
inclination: 51.6436°
perigee height: 417 km
apogee height: 423 km
right ascension of ascending node: 204.8214°
argument of perigee: 24.5017°
revolutions per day: 15.48839908
mean anomaly at epoch: 41.0090°
orbit number at epoch: 30420

The dashed part of the orbit path shows where the satellite is in the earth's shadow,  

DLR